DW0156 Weather Reports


time (UTC)temp
C
wind
direction
speed
KPH
gust
KPH
rain 1hr
cm
rain 24hr
cm
rain mn
cm
humidity
%
barometer
mb
20260901203547 12 263 0.0 0.0 0.00 0.28 0.00 91 1016.4
20260901203028 12 263 0.0 4.8 0.00 0.28 0.00 91 1016.4
20260901202510 12 263 1.6 4.8 0.00 0.28 0.00 91 1016.4
20260901202006 12 263 1.6 4.8 0.00 0.28 0.00 91 1016.4
20260901200900 12 263 0.0 0.0 0.00 0.28 0.00 91 1016.4
20260901200354 12 263 0.0 0.0 0.00 0.28 0.00 91 1016.4
20260901195858 12 263 0.0 0.0 0.00 0.28 0.00 91 1016.5
20260901195400 12 263 0.0 0.0 0.00 0.28 0.00 91 1016.5
20260901194858 12 263 0.0 0.0 0.00 0.28 0.00 91 1016.5
20260901194348 12 263 0.0 0.0 0.00 0.28 0.00 91 1016.5
20260901193838 12 263 0.0 0.0 0.00 0.28 0.00 91 1016.5
20260901193320 12 263 0.0 0.0 0.00 0.28 0.00 91 1016.5
20260901192130 12 263 0.0 0.0 0.00 0.28 0.00 91 1016.4
20260901191616 12 263 0.0 3.2 0.00 0.28 0.00 91 1016.4
20260901190447 12 263 0.0 0.0 0.00 0.28 0.00 91 1016.3
20260901185942 12 263 0.0 0.0 0.00 0.28 0.00 91 1016.3
20260901185438 12 263 0.0 0.0 0.00 0.28 0.00 91 1016.4
20260901184935 12 263 0.0 3.2 0.00 0.28 0.00 91 1016.4
20260901184416 12 263 0.0 0.0 0.00 0.28 0.00 91 1016.4
20260901183305 12 263 0.0 0.0 0.00 0.28 0.00 91 1016.2
20260901182137 12 263 0.0 0.0 0.00 0.28 0.00 91 1016.1
20260901181618 12 263 0.0 0.0 0.00 0.28 0.00 91 1016.1
20260901181107 12 263 0.0 0.0 0.00 0.28 0.00 91 1016.0
20260901175334 11 263 0.0 0.0 0.00 0.28 0.00 91 1016.0
20260901174820 11 263 0.0 0.0 0.00 0.28 0.00 91 1016.0
20260901174313 11 263 0.0 0.0 0.00 0.28 0.00 90 1016.1
20260901173816 11 263 0.0 0.0 0.00 0.28 0.00 90 1016.1
20260901172649 11 263 0.0 0.0 0.00 0.28 0.00 90 1016.3
20260901172157 11 263 0.0 0.0 0.00 0.28 0.00 90 1016.3
20260901171640 12 263 0.0 0.0 0.00 0.28 0.00 90 1016.3
20260901170506 12 263 0.0 0.0 0.00 0.28 0.00 90 1016.4
20260901165947 12 263 0.0 0.0 0.00 0.28 0.00 90 1016.4
20260901165439 12 263 0.0 0.0 0.00 0.28 0.00 90 1016.4
20260901164946 12 263 0.0 0.0 0.00 0.28 0.00 90 1016.4
20260901164432 12 263 0.0 0.0 0.00 0.28 0.00 90 1016.4
20260901163938 12 263 0.0 0.0 0.00 0.28 0.00 90 1016.6
20260901163430 12 263 0.0 0.0 0.00 0.28 0.00 90 1016.6
20260901161658 12 263 0.0 0.0 0.00 0.28 0.00 90 1016.6
20260901160541 12 263 0.0 0.0 0.00 0.28 0.00 89 1016.5
20260901160038 12 263 0.0 0.0 0.00 0.28 0.00 89 1016.5
20260901155537 13 263 0.0 0.0 0.00 0.28 0.00 90 1016.4
20260901153808 13 263 0.0 0.0 0.00 0.28 0.00 89 1016.4
20260901153249 13 263 0.0 0.0 0.00 0.28 0.00 89 1016.4
20260901152753 13 263 0.0 0.0 0.00 0.28 0.00 89 1016.4
20260901152236 13 263 0.0 0.0 0.00 0.28 0.00 89 1016.4
20260901151742 13 263 0.0 0.0 0.00 0.28 0.00 89 1016.4
20260901151238 13 263 0.0 0.0 0.00 0.28 0.00 89 1016.3
20260901150747 13 263 0.0 1.6 0.00 0.28 0.00 89 1016.3
20260901150244 13 263 0.0 0.0 0.00 0.28 0.00 89 1016.3
20260901145729 13 263 0.0 0.0 0.00 0.28 0.00 88 1016.3
20260901145225 13 263 0.0 0.0 0.00 0.28 0.00 88 1016.3
20260901144717 13 263 0.0 0.0 0.00 0.28 0.00 88 1016.3
20260901143544 14 263 0.0 0.0 0.00 0.28 0.00 88 1016.3
20260901143048 14 263 0.0 0.0 0.00 0.28 0.00 88 1016.3
20260901142533 14 263 0.0 1.6 0.00 0.28 0.28 88 1016.4
20260901142042 14 263 0.0 0.0 0.00 0.28 0.28 88 1016.4
20260901141551 14 263 0.0 0.0 0.00 0.28 0.28 88 1016.4
20260901141053 14 263 0.0 0.0 0.00 0.28 0.28 88 1016.4
20260901140600 15 263 0.0 0.0 0.00 0.28 0.28 88 1016.4
20260901140108 15 263 0.0 0.0 0.00 0.28 0.28 88 1016.4
20260901135605 15 263 0.0 0.0 0.00 0.28 0.28 88 1016.4
20260901134416 15 263 0.0 1.6 0.00 0.28 0.28 88 1016.4
20260901133907 15 263 0.0 0.0 0.00 0.28 0.28 88 1016.5
20260901133351 15 263 0.0 3.2 0.00 0.28 0.28 88 1016.5
20260901132844 15 263 1.6 0.0 0.00 0.28 0.28 88 1016.6
20260901132335 15 263 1.6 6.4 0.00 0.28 0.28 88 1016.6
20260901131816 15 263 1.6 6.4 0.00 0.28 0.28 88 1016.6
20260901131312 15 263 1.6 6.4 0.00 0.28 0.28 88 1016.4
20260901130153 15 263 0.0 4.8 0.00 0.28 0.28 87 1016.4
20260901125649 15 263 0.0 0.0 0.00 0.28 0.28 87 1016.6
20260901125151 15 263 0.0 0.0 0.00 0.28 0.28 87 1016.6
20260901124029 15 263 0.0 0.0 0.00 0.28 0.28 86 1016.7
20260901123533 15 263 0.0 0.0 0.00 0.28 0.28 86 1016.7
20260901123031 15 263 0.0 0.0 0.00 0.28 0.28 86 1016.7
20260901122540 15 263 0.0 0.0 0.00 0.28 0.28 86 1016.8
20260901122040 15 263 0.0 0.0 0.00 0.28 0.28 86 1016.8
20260901121538 15 263 0.0 0.0 0.00 0.28 0.28 86 1016.8
20260901120411 15 263 0.0 0.0 0.00 0.28 0.28 86 1016.5
20260901115249 15 263 0.0 0.0 0.00 0.28 0.28 86 1016.5
20260901114751 15 263 0.0 0.0 0.00 0.28 0.28 86 1016.5
20260901113022 15 263 0.0 0.0 0.00 0.28 0.28 85 1016.4
20260901112522 15 263 0.0 0.0 0.00 0.28 0.28 85 1016.4
20260901112026 15 263 0.0 0.0 0.00 0.28 0.28 85 1016.4
20260901111525 15 263 0.0 0.0 0.00 0.28 0.28 85 1016.4
20260901111025 15 263 0.0 0.0 0.00 0.28 0.28 85 1016.3
20260901110526 15 263 0.0 0.0 0.00 0.28 0.28 85 1016.3
20260901104734 15 263 0.0 0.0 0.00 0.28 0.28 85 1016.2
20260901103556 15 263 1.6 8.0 0.00 0.28 0.28 86 1016.3
20260901102444 15 263 1.6 8.0 0.00 0.28 0.28 86 1016.1
20260901101937 15 263 3.2 9.7 0.00 0.28 0.28 87 1016.1
20260901101418 15 263 3.2 9.7 0.00 0.28 0.28 87 1016.1
20260901100903 15 263 3.2 9.7 0.00 0.28 0.28 87 1015.9
20260901100357 15 263 0.0 9.7 0.00 0.28 0.28 88 1015.9
20260901095844 15 263 0.0 4.8 0.00 0.28 0.28 88 1015.9
20260901095349 15 263 0.0 0.0 0.00 0.28 0.28 88 1015.9
20260901094832 15 263 0.0 3.2 0.00 0.28 0.28 88 1015.9
20260901094322 15 263 0.0 0.0 0.00 0.28 0.28 88 1015.4
20260901093207 15 263 0.0 0.0 0.00 0.28 0.28 88 1015.4
20260901092651 15 263 0.0 0.0 0.00 0.28 0.28 88 1015.3
20260901091521 15 263 0.0 0.0 0.00 0.28 0.28 88 1015.3
20260901091015 15 263 0.0 8.0 0.00 0.28 0.28 88 1014.9
20260901085914 15 263 1.6 8.0 0.00 0.28 0.28 88 1014.9
20260901085403 15 263 0.0 6.4 0.00 0.28 0.28 88 1014.9
20260901084852 15 263 0.0 4.8 0.00 0.28 0.28 88 1014.9
20260901084345 15 263 0.0 0.0 0.00 0.28 0.28 87 1014.8
20260901083839 15 263 0.0 0.0 0.00 0.28 0.28 87 1014.8
20260901083322 15 263 1.6 6.4 0.00 0.28 0.28 87 1014.8
20260901082812 15 263 1.6 6.4 0.00 0.28 0.28 87 1014.8
20260901082316 15 263 1.6 6.4 0.00 0.28 0.28 87 1014.8
20260901081821 15 263 1.6 6.4 0.00 0.28 0.28 87 1014.8
20260901081303 15 263 1.6 9.7 0.00 0.28 0.28 87 1014.7
20260901080746 15 263 1.6 9.7 0.00 0.28 0.28 87 1014.7
20260901080243 15 263 1.6 9.7 0.00 0.28 0.28 87 1014.7
20260901075739 15 263 3.2 9.7 0.00 0.28 0.28 87 1014.4
20260901075221 15 263 3.2 9.7 0.00 0.28 0.28 87 1014.4
20260901074057 15 263 3.2 12.9 0.00 0.28 0.28 87 1014.3
20260901073601 15 263 3.2 14.5 0.00 0.28 0.28 87 1014.3
20260901073044 15 263 4.8 14.5 0.00 0.28 0.28 87 1014.3
20260901072528 15 263 4.8 16.1 0.00 0.28 0.28 86 1014.3
20260901072013 15 263 4.8 16.1 0.00 0.28 0.28 86 1014.3
20260901071459 15 263 6.4 16.1 0.00 0.28 0.28 86 1014.3
20260901070958 15 263 6.4 19.3 0.00 0.28 0.28 86 1014.3
20260901070451 15 263 4.8 19.3 0.08 0.28 0.28 85 1014.3
20260901065345 15 263 6.4 19.3 0.30 0.25 0.28 84 1014.9
20260901064205 16 263 3.2 8.0 0.30 0.20 0.23 82 1016.0
20260901063714 16 263 0.0 6.4 0.18 0.18 0.20 80 1016.0
20260901063212 16 263 0.0 3.2 0.36 0.18 0.18 79 1016.0
20260901062718 16 263 0.0 3.2 0.23 0.15 0.18 78 1016.1
20260901062208 16 263 0.0 0.0 0.25 0.13 0.15 76 1016.1
20260901061701 16 263 0.0 1.6 0.25 0.10 0.10 75 1016.1
20260901061200 17 263 0.0 1.6 0.28 0.08 0.08 74 1016.1
20260901060659 17 263 0.0 1.6 0.28 0.08 0.08 73 1016.1
20260901060141 17 263 1.6 0.0 0.33 0.05 0.05 72 1016.1
20260901055638 17 263 4.8 14.5 0.00 0.00 0.00 71 1016.4
20260901055118 17 263 8.0 30.6 0.00 0.00 0.00 69 1016.4
20260901053326 19 263 12.9 29.0 0.00 0.00 0.00 60 1015.8
20260901052815 20 263 9.7 29.0 0.00 0.00 0.00 57 1015.4
20260901052310 20 263 4.8 20.9 0.00 0.00 0.00 55 1015.4
20260901051814 20 263 3.2 14.5 0.00 0.00 0.00 55 1015.4
20260901051306 20 263 4.8 14.5 0.00 0.00 0.00 54 1015.0
20260901050759 20 263 3.2 16.1 0.00 0.00 0.00 54 1015.0
20260901050256 20 263 3.2 16.1 0.00 0.00 0.00 54 1015.0
20260901045806 20 263 3.2 22.5 0.00 0.00 0.00 54 1015.2
20260901045247 20 263 1.6 22.5 0.00 0.00 0.00 55 1015.2
20260901044755 20 263 3.2 22.5 0.00 0.00 0.00 55 1015.2
20260901044258 20 263 3.2 22.5 0.00 0.00 0.00 54 1015.3
20260901043759 20 263 3.2 19.3 0.00 0.00 0.00 54 1015.3
20260901043308 20 263 4.8 19.3 0.00 0.00 0.00 53 1015.3
20260901042132 20 263 4.8 19.3 0.00 0.00 0.00 52 1014.8
20260901041625 20 263 3.2 9.7 0.00 0.00 0.00 52 1014.8
20260901041133 20 263 3.2 9.7 0.00 0.00 0.00 52 1015.2
20260901040613 20 263 1.6 14.5 0.00 0.00 0.00 53 1015.2
20260901040111 20 263 3.2 14.5 0.00 0.00 0.00 53 1015.2
20260901035552 20 263 6.4 24.1 0.00 0.00 0.00 52 1015.2
20260901034428 20 263 6.4 24.1 0.00 0.00 0.00 52 1015.2
20260901033920 20 263 4.8 16.1 0.00 0.00 0.00 52 1015.4
20260901033414 20 263 6.4 25.7 0.00 0.00 0.00 52 1015.4
20260901032915 20 263 6.4 25.7 0.00 0.00 0.00 51 1015.4
20260901031741 20 263 9.7 22.5 0.00 0.00 0.00 51 1015.5
20260901031241 20 263 9.7 22.5 0.00 0.00 0.00 50 1016.0
20260901030724 20 263 8.0 29.0 0.00 0.00 0.00 50 1016.0
20260901030225 20 263 6.4 29.0 0.00 0.00 0.00 49 1016.0
20260901025733 20 263 6.4 29.0 0.00 0.00 0.00 49 1016.3
20260901024616 21 263 8.0 22.5 0.00 0.00 0.00 47 1016.3
20260901024115 21 263 8.0 25.7 0.00 0.00 0.00 46 1016.2
20260901023607 21 263 8.0 25.7 0.00 0.00 0.00 46 1016.2
20260901023109 21 263 8.0 27.4 0.00 0.00 0.00 46 1016.2
20260901022555 21 263 6.4 27.4 0.00 0.00 0.00 46 1016.3
20260901022037 21 263 9.7 27.4 0.00 0.00 0.00 47 1016.3
20260901021518 21 263 9.7 27.4 0.00 0.00 0.00 47 1016.3
20260901021003 21 263 6.4 19.3 0.00 0.00 0.00 48 1016.9
20260901020508 20 263 6.4 19.3 0.00 0.00 0.00 49 1016.9
20260901020003 20 263 4.8 17.7 0.00 0.00 0.00 50 1016.9
20260901015506 20 263 4.8 17.7 0.00 0.00 0.00 51 1017.0
20260901015014 19 263 6.4 17.7 0.00 0.00 0.00 51 1017.0
20260901014504 19 263 6.4 17.7 0.00 0.00 0.00 51 1017.0
20260901013346 19 263 4.8 19.3 0.00 0.00 0.00 51 1017.3
20260901012834 19 263 6.4 19.3 0.00 0.00 0.00 51 1016.9
20260901012334 18 263 8.0 24.1 0.00 0.00 0.00 51 1016.9
20260901011822 18 263 8.0 24.1 0.00 0.00 0.00 52 1016.9
20260901011319 18 263 9.7 24.1 0.00 0.00 0.00 52 1017.6
20260901010208 18 263 6.4 20.9 0.00 0.00 0.00 51 1017.6
20260901005705 18 263 4.8 20.9 0.00 0.00 0.00 51 1018.0
20260901005211 18 263 3.2 17.7 0.00 0.00 0.00 51 1018.0
20260901004710 18 263 4.8 17.7 0.00 0.00 0.00 51 1018.0
20260901004217 18 263 4.8 20.9 0.00 0.00 0.00 51 1017.6
20260901003725 18 263 6.4 20.9 0.00 0.00 0.00 51 1017.6
20260901003218 18 263 6.4 20.9 0.00 0.00 0.00 51 1017.6
20260901002716 18 263 6.4 20.9 0.00 0.00 0.00 50 1017.8
20260901002217 18 263 6.4 25.7 0.00 0.00 0.00 50 1017.8
20260901001715 18 263 4.8 25.7 0.00 0.00 0.00 50 1017.8
20260901001158 18 263 8.0 25.7 0.00 0.00 0.00 50 1018.0
20260901000700 18 263 9.7 25.7 0.00 0.00 0.00 49 1018.0
20260901000204 19 263 6.4 24.1 0.00 0.00 0.00 48 1018.0
20260831235648 19 263 8.0 24.1 0.00 0.00 0.00 48 1018.0
20260831235146 19 263 8.0 24.1 0.00 0.00 0.00 47 1018.0
20260831234635 19 263 8.0 22.5 0.00 0.00 0.00 48 1018.0
20260831234127 19 263 8.0 22.5 0.00 0.00 0.00 48 1018.3
20260831233617 18 263 4.8 17.7 0.00 0.00 0.00 50 1018.3
20260831233118 18 263 4.8 17.7 0.00 0.00 0.00 50 1018.3
20260831232603 18 263 4.8 17.7 0.00 0.00 0.00 51 1018.5
20260831232047 18 263 4.8 17.7 0.00 0.00 0.00 51 1018.5
20260831231547 17 263 4.8 16.1 0.00 0.00 0.00 52 1018.5
20260831231039 17 263 3.2 16.1 0.00 0.00 0.00 52 1018.5
20260831230525 17 263 1.6 11.3 0.00 0.00 0.00 52 1018.5
20260831230031 17 263 3.2 11.3 0.00 0.00 0.00 52 1018.5
20260831225514 17 263 3.2 16.1 0.00 0.00 0.00 53 1018.2
20260831225022 17 263 4.8 16.1 0.00 0.00 0.00 53 1018.2
20260831224523 17 263 4.8 17.7 0.00 0.00 0.00 53 1018.2
20260831223355 17 263 6.4 19.3 0.00 0.00 0.00 54 1018.5
20260831222857 17 263 6.4 19.3 0.00 0.00 0.00 54 1018.5
20260831222358 17 263 4.8 19.3 0.00 0.00 0.00 54 1018.5
20260831221226 17 263 4.8 17.7 0.00 0.00 0.00 55 1018.7
20260831220726 16 263 3.2 14.5 0.00 0.00 0.00 55 1018.7
20260831220215 16 263 3.2 8.0 0.00 0.00 0.00 56 1018.7
20260831213811 15 263 4.8 12.9 0.00 0.00 0.00 59 1018.5
20260831213307 15 263 3.2 12.9 0.00 0.00 0.00 61 1018.5
20260831211518 14 263 4.8 12.9 0.00 0.00 0.00 62 1018.5
20260831210959 14 263 4.8 12.9 0.00 0.00 0.00 62 1018.6
20260831210508 14 263 3.2 12.9 0.00 0.00 0.00 62 1018.6
20260831210009 14 263 3.2 14.5 0.00 0.00 0.00 62 1018.6
20260831205457 14 263 4.8 14.5 0.00 0.00 0.00 62 1018.6
20260831204335 14 263 3.2 14.5 0.00 0.00 0.00 63 1018.7